User: anonymous   Login
Location: Makakahi
(40.6833°S, 175.6000°E)
Time: 05:14:04
(UTC+00:00)
Language:

DMSP B5D2-8 - Orbit

View from above orbital plane
View from above orbital plane
View from above satellite
View from above satellite

Ground track
Ground track

The orbit data is extracted from the following two-line orbital elements,

1 23533U 95015A   25347.03955468  .00000171  00000-0  10720-3 0  9999
2 23533  98.8102 357.7615 0006270 333.7263  86.7074 14.16969175586833
Epoch (UTC): 13 December 2025 00:56:57
Eccentricity: 0.0006270
inclination: 98.8102°
perigee height: 831 km
apogee height: 840 km
right ascension of ascending node: 357.7615°
argument of perigee: 333.7263°
revolutions per day: 14.16969175
mean anomaly at epoch: 86.7074°
orbit number at epoch: 58683

The dashed part of the orbit path shows where the satellite is in the earth's shadow,  

DLR